TimeCDT,TemperatureF,Dew PointF,Humidity,Sea Level PressureIn,VisibilityMPH,Wind Direction,Wind SpeedMPH,Gust SpeedMPH,PrecipitationIn,Events,Conditions,WindDirDegrees,DateUTC
12:15 AM,58.8,54.7,86,30.14,10.0,Calm,Calm,-,N/A,,Clear,0,2013-03-30 05:15:00
12:35 AM,57.7,54.5,89,30.13,10.0,SSE,3.5,-,N/A,,Clear,160,2013-03-30 05:35:00
12:55 AM,58.6,54.7,87,30.13,10.0,SSE,3.5,-,N/A,,Clear,160,2013-03-30 05:55:00
1:15 AM,59.9,55.0,84,30.13,10.0,SSE,3.5,-,N/A,,Clear,160,2013-03-30 06:15:00
1:35 AM,61.3,55.4,81,30.12,10.0,South,3.5,-,N/A,,Clear,170,2013-03-30 06:35:00
1:55 AM,59.7,54.7,83,30.12,10.0,SSE,3.5,-,N/A,,Clear,150,2013-03-30 06:55:00
2:15 AM,61.0,55.2,81,30.12,10.0,South,3.5,-,N/A,,Clear,170,2013-03-30 07:15:00
2:35 AM,60.8,55.6,83,30.12,10.0,South,4.6,-,N/A,,Clear,170,2013-03-30 07:35:00
2:55 AM,60.4,55.4,83,30.10,10.0,SSE,4.6,-,N/A,,Clear,150,2013-03-30 07:55:00
3:15 AM,60.8,55.8,83,30.09,10.0,SSE,3.5,-,N/A,,Clear,150,2013-03-30 08:15:00
3:35 AM,60.8,55.9,84,30.08,10.0,SE,5.8,-,N/A,,Clear,130,2013-03-30 08:35:00
3:55 AM,61.0,56.3,85,30.07,10.0,SE,5.8,-,N/A,,Clear,140,2013-03-30 08:55:00
4:15 AM,60.8,56.3,85,30.07,10.0,SE,4.6,-,N/A,,Clear,140,2013-03-30 09:15:00
4:35 AM,60.8,56.3,85,30.07,10.0,SE,5.8,-,N/A,,Mostly Cloudy,140,2013-03-30 09:35:00
4:55 AM,60.8,56.7,86,30.06,10.0,SE,8.1,-,N/A,Rain,Light Rain,130,2013-03-30 09:55:00
5:15 AM,60.8,57.0,87,30.07,10.0,SSE,5.8,-,N/A,Rain,Light Rain,160,2013-03-30 10:15:00
5:35 AM,60.4,56.8,88,30.09,10.0,Calm,Calm,-,N/A,Rain,Light Rain,0,2013-03-30 10:35:00
5:55 AM,60.3,56.8,88,30.09,7.0,Calm,Calm,-,0.01,Rain,Light Rain,0,2013-03-30 10:55:00
6:15 AM,59.9,57.2,91,30.10,10.0,South,3.5,-,0.01,Rain,Light Rain,170,2013-03-30 11:15:00
6:35 AM,59.9,57.2,91,30.11,10.0,South,3.5,-,0.02,Rain,Light Rain,190,2013-03-30 11:35:00
6:55 AM,59.7,57.2,91,30.11,5.0,SSE,3.5,-,0.04,Rain,Rain,150,2013-03-30 11:55:00
7:15 AM,59.5,57.2,92,30.10,7.0,SSE,4.6,-,N/A,,Drizzle,150,2013-03-30 12:15:00
7:35 AM,59.5,57.2,92,30.10,5.0,SSE,3.5,-,N/A,Rain,Light Rain,150,2013-03-30 12:35:00
7:55 AM,59.5,57.2,92,30.11,5.0,South,3.5,-,0.01,Rain,Rain,170,2013-03-30 12:55:00
8:15 AM,59.7,57.4,92,30.09,3.0,SSE,4.6,-,0.08,Rain,Rain,150,2013-03-30 13:15:00
8:35 AM,59.5,57.2,92,30.05,5.0,SE,6.9,-,0.11,Rain,Rain,130,2013-03-30 13:35:00
8:55 AM,59.9,57.4,91,30.04,5.0,SE,9.2,16.1,0.13,Rain,Light Rain,130,2013-03-30 13:55:00
9:15 AM,60.1,57.6,91,30.06,7.0,SW,9.2,-,N/A,,Light Drizzle,220,2013-03-30 14:15:00
9:35 AM,60.1,57.7,92,30.08,7.0,SSW,9.2,-,N/A,,Overcast,210,2013-03-30 14:35:00
9:55 AM,60.3,58.1,93,30.08,2.5,South,9.2,-,0.10,Rain,Heavy Rain,180,2013-03-30 14:55:00
10:15 AM,60.3,57.7,91,30.08,5.0,SSW,6.9,-,0.02,Rain,Light Rain,200,2013-03-30 15:15:00
10:35 AM,60.6,57.9,91,30.08,7.0,SSW,10.4,16.1,0.03,Rain,Light Rain,210,2013-03-30 15:35:00
10:55 AM,60.8,58.1,91,30.09,7.0,WSW,5.8,-,0.04,Rain,Light Rain,240,2013-03-30 15:55:00
11:15 AM,61.2,58.5,91,30.08,10.0,SW,4.6,-,N/A,Rain,Light Rain,230,2013-03-30 16:15:00
11:35 AM,61.2,58.3,90,30.08,5.0,NW,5.8,-,0.05,Rain,Heavy Rain,320,2013-03-30 16:35:00
11:55 AM,61.0,58.5,91,30.07,1.0,Calm,Calm,-,0.33,Rain-Thunderstorm,Heavy Thunderstorms and Rain,0,2013-03-30 16:55:00
12:15 PM,61.2,58.6,91,30.09,7.0,NW,3.5,-,0.02,Rain-Thunderstorm,Thunderstorms and Rain,310,2013-03-30 17:15:00
12:35 PM,61.2,58.8,92,30.07,4.0,Calm,Calm,-,0.07,Rain-Thunderstorm,Thunderstorms and Rain,0,2013-03-30 17:35:00
12:55 PM,61.7,59.2,91,30.07,7.0,Calm,Calm,-,0.09,Rain-Thunderstorm,Rain,0,2013-03-30 17:55:00
1:15 PM,62.4,59.5,90,30.06,10.0,Calm,Calm,-,N/A,Rain-Thunderstorm,Light Thunderstorms and Rain,0,2013-03-30 18:15:00
1:35 PM,62.8,59.9,90,30.06,10.0,NW,3.5,-,N/A,Thunderstorm,Thunderstorm,310,2013-03-30 18:35:00
1:55 PM,63.9,61.0,90,30.04,10.0,Calm,Calm,-,N/A,Rain,Light Rain,0,2013-03-30 18:55:00
2:15 PM,64.4,61.0,89,30.03,10.0,Calm,Calm,-,N/A,,Overcast,0,2013-03-30 19:15:00
2:35 PM,64.8,61.2,88,30.02,10.0,Calm,Calm,-,N/A,,Mostly Cloudy,0,2013-03-30 19:35:00
2:55 PM,65.3,61.3,87,30.02,10.0,Calm,Calm,-,N/A,,Scattered Clouds,0,2013-03-30 19:55:00
3:15 PM,67.8,62.1,82,30.01,10.0,Calm,Calm,-,N/A,,Scattered Clouds,0,2013-03-30 20:15:00
3:35 PM,67.8,62.1,82,30.02,10.0,NNW,3.5,-,N/A,Thunderstorm,Thunderstorm,330,2013-03-30 20:35:00
3:55 PM,66.7,62.6,86,30.02,10.0,NNE,3.5,-,N/A,Thunderstorm,Thunderstorm,30,2013-03-30 20:55:00
4:15 PM,65.3,62.2,90,30.00,7.0,Calm,Calm,-,0.01,Rain-Thunderstorm,Light Thunderstorms and Rain,0,2013-03-30 21:15:00
4:35 PM,65.7,62.8,90,29.98,7.0,Calm,Calm,-,0.01,,Scattered Clouds,0,2013-03-30 21:35:00
4:55 PM,68.0,63.7,86,29.96,10.0,Calm,Calm,-,0.01,,Scattered Clouds,0,2013-03-30 21:55:00
5:15 PM,70.0,62.6,77,29.97,10.0,Calm,Calm,-,N/A,,Scattered Clouds,0,2013-03-30 22:15:00
5:35 PM,71.6,62.8,74,29.96,10.0,South,5.8,-,N/A,,Scattered Clouds,190,2013-03-30 22:35:00
5:55 PM,71.8,61.7,70,29.96,10.0,South,5.8,-,N/A,,Clear,190,2013-03-30 22:55:00
6:15 PM,71.6,61.5,70,29.95,10.0,SSW,4.6,-,N/A,,Clear,200,2013-03-30 23:15:00
6:35 PM,70.5,61.0,72,29.96,10.0,South,3.5,-,N/A,,Clear,180,2013-03-30 23:35:00
6:55 PM,70.2,60.8,72,29.96,10.0,Calm,Calm,-,N/A,,Scattered Clouds,0,2013-03-30 23:55:00
7:15 PM,69.1,61.2,76,29.96,10.0,Calm,Calm,-,N/A,,Scattered Clouds,0,2013-03-31 00:15:00
7:35 PM,66.7,61.9,84,29.96,10.0,Calm,Calm,-,N/A,,Clear,0,2013-03-31 00:35:00
7:55 PM,65.5,61.7,88,29.96,10.0,Calm,Calm,-,N/A,,Clear,0,2013-03-31 00:55:00
8:15 PM,64.6,61.5,90,29.96,10.0,Calm,Calm,-,N/A,,Clear,0,2013-03-31 01:15:00
8:35 PM,63.9,61.2,91,29.96,7.0,Calm,Calm,-,N/A,,Scattered Clouds,0,2013-03-31 01:35:00
8:55 PM,63.0,60.4,91,29.96,7.0,Calm,Calm,-,N/A,,Clear,0,2013-03-31 01:55:00
9:15 PM,62.8,60.6,93,29.96,7.0,Calm,Calm,-,N/A,,Clear,0,2013-03-31 02:15:00
9:35 PM,62.2,60.1,93,29.97,7.0,Calm,Calm,-,N/A,,Clear,0,2013-03-31 02:35:00
9:55 PM,61.7,59.4,92,29.97,7.0,Calm,Calm,-,N/A,,Clear,0,2013-03-31 02:55:00
10:15 PM,61.7,59.4,92,29.98,7.0,SE,3.5,-,N/A,,Clear,130,2013-03-31 03:15:00
10:35 PM,62.6,59.9,91,29.98,10.0,SE,3.5,-,N/A,,Scattered Clouds,140,2013-03-31 03:35:00
10:55 PM,62.2,59.2,90,29.98,10.0,SE,3.5,-,N/A,,Mostly Cloudy,140,2013-03-31 03:55:00
11:15 PM,63.5,59.2,86,29.97,10.0,SSE,3.5,-,N/A,,Mostly Cloudy,160,2013-03-31 04:15:00
11:35 PM,63.3,59.0,86,29.97,10.0,SSE,3.5,-,N/A,,Clear,150,2013-03-31 04:35:00
11:55 PM,63.5,59.0,85,29.98,10.0,SSE,3.5,-,N/A,,Clear,160,2013-03-31 04:55:00